Bowling Green, KY

3:41 AM CST on February 06, 2016 (GMT -0600)
Bowling Green-Warren County Regional

Weather History for KBWG - October, 2012

Change the Weather History Date:

Wednesday, October 17, 2012

  Actual Average Record
Temperature  
Mean Temperature 64 °F 58 °F  
Max Temperature 79 °F 71 °F 90 °F (1917)
Min Temperature 49 °F 46 °F 29 °F (1948)
Degree Days  
Heating Degree Days 1 7  
Month to date heating degree days 114 94  
Since 1 July heating degree days 147 130  
Cooling Degree Days 0 1  
Month to date cooling degree days 5 26  
Year to date cooling degree days 1928 1481  
Growing Degree Days 14 (Base 50)    
Moisture  
Dew Point 48 °F    
Average Humidity 63    
Maximum Humidity 89    
Minimum Humidity 36    
Precipitation  
Precipitation 0.52 in 0.11 in 3.08 in (1975)
Month to date precipitation 2.46 1.84  
Year to date precipitation 33.94 39.33  
Snow  
Snow 0.00 in 0.00 in 0.00 in ()
Month to date snowfall 0.0 0.0  
Since 1 July snowfall 0.0 0.0  
Since 1 September snowfall 0.0 0.0  
Snow Depth 0.00 in    
Sea Level Pressure  
Sea Level Pressure 29.73 in    
Wind  
Wind Speed 12 mph (South)    
Max Wind Speed 26 mph    
Max Gust Speed 37 mph    
Visibility 10 miles    
Events Rain , Thunderstorm    
T = Trace of Precipitation, MM = Missing Value Source: NWS Daily Summary

Daily Weather History Graph

Daily Weather History Graph

Search for Another Location

Airport or City:

Trip Planner

Search our weather history database for the weather conditions in past years. The results will help you decide how hot, cold, wet, or windy it might be!

Date:

Astronomy

Oct. 17, 2012 Rise Set
Actual Time 6:55 AM CDT 6:05 PM CDT
Civil Twilight 6:29 AM CDT 6:31 PM CDT
Nautical Twilight 5:59 AM CDT 7:01 PM CDT
Astronomical Twilight 5:29 AM CDT 7:32 PM CDT
Moon 9:24 AM CDT (10/17) 7:45 PM CDT (10/17)
Length of Visible Light 12h 02m
Length of Day
11h 10m
Waxing Crescent, 7% of the Moon is Illuminated
Oct 17
Waxing Crescent
Oct 21
First Quarter
Oct 29
Full
Nov 6
Last Quarter
Nov 13
New

Hourly Weather History & Observations

Time (CDT) Temp. Dew Point Humidity Pressure Visibility Wind Dir Wind Speed Gust Speed Precip Events Conditions
12:53 AM 59.0 °F 50.0 °F 72% 29.84 in 10.0 mi South 5.8 mph - N/A   Clear
1:53 AM 55.9 °F 50.0 °F 80% 29.84 in 10.0 mi Calm Calm - N/A   Clear
2:53 AM 55.9 °F 48.9 °F 77% 29.83 in 10.0 mi South 3.5 mph - N/A   Clear
3:53 AM 54.0 °F 48.9 °F 83% 29.83 in 10.0 mi SSE 3.5 mph - N/A   Clear
4:53 AM 52.0 °F 48.9 °F 89% 29.83 in 10.0 mi Calm Calm - N/A   Clear
5:53 AM 50.0 °F 46.9 °F 89% 29.83 in 8.0 mi Calm Calm - N/A   Clear
6:53 AM 52.0 °F 48.0 °F 86% 29.84 in 10.0 mi South 5.8 mph - N/A   Clear
7:53 AM 57.9 °F 51.1 °F 78% 29.83 in 10.0 mi South 9.2 mph - N/A   Clear
8:53 AM 63.0 °F 51.1 °F 65% 29.83 in 10.0 mi South 9.2 mph - N/A   Clear
9:53 AM 69.1 °F 51.1 °F 53% 29.82 in 10.0 mi South 10.4 mph - N/A   Clear
10:53 AM 72.0 °F 48.9 °F 44% 29.80 in 10.0 mi South 15.0 mph 23.0 mph N/A   Partly Cloudy
11:53 AM 75.0 °F 46.0 °F 36% 29.78 in 10.0 mi South 17.3 mph 27.6 mph N/A   Scattered Clouds
12:53 PM 77.0 °F 48.9 °F 37% 29.75 in 10.0 mi South 18.4 mph 26.5 mph N/A   Clear
1:53 PM 75.9 °F 48.0 °F 37% 29.72 in 10.0 mi South 17.3 mph 25.3 mph N/A   Mostly Cloudy
2:53 PM 77.0 °F 48.9 °F 37% 29.69 in 10.0 mi South 17.3 mph 25.3 mph N/A   Scattered Clouds
3:53 PM 77.0 °F 48.0 °F 36% 29.68 in 10.0 mi South 19.6 mph 27.6 mph N/A   Clear
4:53 PM 73.9 °F 48.0 °F 40% 29.66 in 10.0 mi South 15.0 mph - N/A   Clear
5:53 PM 73.9 °F 46.9 °F 38% 29.65 in 10.0 mi South 12.7 mph - N/A   Clear
6:53 PM 71.1 °F 48.0 °F 44% 29.63 in 10.0 mi SSE 13.8 mph 20.7 mph N/A   Clear
7:53 PM 70.0 °F 46.9 °F 44% 29.59 in 10.0 mi SSE 13.8 mph - N/A   Clear
8:53 PM 70.0 °F 45.0 °F 41% 29.58 in 10.0 mi South 19.6 mph 28.8 mph N/A   Clear
9:53 PM 70.0 °F 45.0 °F 41% 29.58 in 10.0 mi South 20.7 mph 28.8 mph N/A   Clear
10:53 PM 70.0 °F 45.0 °F 41% 29.52 in 10.0 mi South 20.7 mph 33.4 mph N/A   Clear
11:45 PM 69.8 °F 46.4 °F 43% 29.59 in 10.0 mi SW 19.6 mph 33.4 mph N/A Thunderstorm Overcast
11:53 PM 66.0 °F 50.0 °F 56% 29.63 in 6.0 mi WSW 19.6 mph 34.5 mph 0.03 in Rain , Thunderstorm Heavy Thunderstorms and Rain